Location: Kosice
(0.0000°N, 21.2500°E)
Time: 13:13:05
(UTC+02:00)

Daily predictions for brighter satellites

Satellite Brightness Start Highest point End
(mag) Time Altitude Azimuth Time Altitude Azimuth Time Altitude Azimuth
Cosmos 1844 Rocket 4.0 18:55:36 10° SE 18:59:14 17° ESE 19:02:50 10° ENE
Cosmos 2279 Rocket 4.4 18:56:07 10° SSE 19:01:56 42° E 19:07:41 10° NNE
Cosmos 1606 Rocket 4.3 19:03:54 10° NNE 19:07:50 33° E 19:11:45 10° SSE
Centaur AC-102 4.2 18:53:11 10° WNW 19:08:20 76° NNE 19:13:08 10° ESE
Ariane H10+ 2.3 18:59:34 10° W 19:10:23 65° S 19:13:55 10° E
Delta 2 Rocket 3.4 19:08:33 10° SW 19:12:04 39° SE 19:15:18 10° ENE
Cosmos 1092 Rocket 4.1 19:11:38 10° NNE 19:17:35 51° E 19:23:30 10° SSE
GPS 2-14 Rocket1 3.5 19:14:21 10° W 19:18:07 49° NNW 19:21:48 10° NE
CZ-4 R/B 2.7 19:14:52 10° S 19:18:39 40° WSW 19:22:20 10° NNW
Ariane H10+ 3.9 19:05:47 10° W 19:20:23 77° S 19:24:51 12° E
Delta 2 Rocket 4.3 19:16:54 10° WNW 19:22:44 52° SSW 19:28:09 13° SE
Cosmos 972 4.5 19:20:12 10° S 19:25:40 71° E 19:30:39 10° NNE
Cosmos 2180 Rocket 4.5 19:23:41 10° S 19:29:53 63° E 19:35:58 10° NNE
Landsat 4 3.7 19:26:06 10° N 19:29:54 86° WNW 19:33:43 10° SSW
SL-16 R/B 2.2 19:26:29 10° NNW 19:32:10 90° E 19:37:52 10° SSE
Cosmos 2228 3.4 19:29:07 10° NNE 19:33:15 42° E 19:36:56 13° SSE
Aureole 1 Rocket 1.9 19:30:53 10° S 19:33:57 71° ESE 19:36:53 10° NNE
SME Rocket 2.8 19:31:19 10° SSE 19:35:35 87° ENE 19:39:17 10° NNW
Cosmos 2237 Rocket 4.4 19:32:21 10° NW 19:36:44 23° WSW 19:41:07 10° SSW
Cosmos 1805 3.5 19:33:24 10° NNE 19:37:08 46° E 19:39:56 16° SSE
H-2A R/B 2.9 19:34:31 10° S 19:38:24 78° W 19:42:15 10° NNW
Cosmos 2285 Rocket 4.1 19:33:38 10° S 19:39:48 51° ESE 19:45:54 10° NNE
Ariane H10-3 2.8 19:27:45 10° W 19:42:41 56° S 19:45:06 24° ESE
Ariane H10 1.8 19:41:29 10° WNW 19:43:53 39° N 19:44:51 25° ENE
Cosmos 2195 Rocket 4.5 19:38:23 10° N 19:44:39 67° E 19:50:56 10° SSE
Envisat 3.8 19:43:43 23° ESE 19:45:50 32° ENE 19:50:18 10° NNE
SJ-6B 4.4 19:46:24 18° ENE 19:46:24 18° ENE 19:48:36 10° NNE
DELTA 2 R/B (1) 4.1 19:41:20 10° WNW 19:46:42 52° SW 19:50:27 19° SSE
Cosmos 2058 Rocket 3.0 19:43:03 10° N 19:47:19 58° E 19:50:14 19° SSE
Cosmos 1766 3.6 19:43:47 10° N 19:47:40 67° W 19:51:33 10° S
Cosmos 1726 Rocket 3.7 19:46:52 10° N 19:51:15 72° W 19:55:37 10° S
Cosmos 1953 4.0 19:49:42 10° NE 19:51:33 18° ENE 19:51:33 18° ENE
Meteor 2-5 Rocket 4.1 19:48:06 10° SSE 19:53:42 45° E 19:59:19 10° NNE
Cosmos 1400 Rocket 2.8 19:49:39 10° S 19:53:46 90° SSW 19:57:49 10° N
Thor Agena Rocket 3.4 19:49:25 10° NNE 19:54:25 68° ESE 19:59:26 10° S
SWIFT 4.0 19:51:43 10° NW 19:55:09 23° NNE 19:56:50 18° NE
CZ-2D R/B 4.0 19:56:39 34° ENE 19:56:39 34° ENE 20:00:06 10° NNE
BREEZE-M DEB (TANK) 1.9 19:56:23 10° NW 19:58:42 88° SW 20:00:01 38° SE
Cosmos 1048 Rocket 4.4 19:54:15 10° SSW 19:59:24 64° WNW 20:04:37 10° N
IUS-7 SRM-1 4.3 19:38:43 10° WSW 20:00:33 88° NNW 20:03:18 23° ENE
Cosmos 1655 Rocket 4.1 19:59:15 10° NNE 20:05:12 49° E 20:07:33 33° SE
Cosmos 1603 3.9 20:02:45 10° N 20:08:16 49° ENE 20:09:32 41° ESE
FREGAT/IRIS 2.9 20:08:54 61° W 20:08:54 61° W 20:11:42 10° NNW
OAO 2 Rocket 3.6 20:04:51 10° NW 20:10:02 57° NE 20:11:19 45° E
BLOCK DM-SL R/B 3.3 20:05:37 10° W 20:11:56 81° S 20:13:39 42° E
Cosmos 1470 4.3 20:11:53 10° NNE 20:13:45 25° NNE 20:13:45 25° NNE
Cosmos 1733 3.7 20:18:03 10° N 20:20:58 52° N 20:20:58 52° N
GOES 2 Rocket 3.3 20:19:10 10° WNW 20:23:09 52° SW 20:23:09 52° SW
GPS 2-17 Rocket1 3.4 20:19:26 10° WNW 20:24:08 55° NNE 20:24:19 55° NNE
ASTRO E2 3.7 20:21:51 10° NW 20:24:53 38° N 20:24:53 38° N
GPS 2-15 Rocket1 4.1 20:23:48 10° NW 20:28:11 35° NNE 20:28:15 35° NNE
BREEZE M DEB (TANK) 4.5 20:34:37 10° NW 20:35:23 16° NW 20:35:23 16° NW
Cosmos 1844 Rocket 4.3 20:37:51 10° SW 20:42:50 32° WNW 20:47:49 10° NNW
Cosmos 1943 3.8 20:41:34 10° N 20:45:37 46° NNE 20:45:37 46° NNE
Ariane H10 4.3 19:32:20 10° W 20:48:00 80° S 20:51:13 53° ESE
Cosmos 2056 Rocket 4.1 20:46:06 10° NNW 20:51:12 53° WSW 20:51:20 53° WSW
CZ-3C R/B 4.4 20:53:06 10° SW 21:02:38 61° SSE 22:46:55 10° ENE
NOSS 3-4 (A) 4.4 21:03:45 10° SW 21:09:41 43° WNW 21:15:28 10° N
NOSS 3-4 (C) 4.4 21:03:51 10° SW 21:09:47 44° WNW 21:15:34 10° N
Resurs 01 Rocket 4.3 21:14:30 13° NNW 21:14:30 13° NNW 21:15:03 10° NNW
ARIANE 5 R/B 3.8 21:06:56 10° WSW 21:14:28 30° WSW 21:14:28 30° WSW
ARIANE 5 DEB (SYLDA) 4.4 21:12:06 10° W 21:27:18 62° W 21:27:18 62° W
